EW9733 Weather Reports


Display with metric or nautical units.
time (UTC)temp
F
wind
direction
speed
MPH
gust
MPH
rain 1hr
in
rain 24hr
in
rain mn
in
humidity
%
barometer
mb
20260504044543 37 355 0.0 1.0 0.00 0.00 0.00 77 1009.5
20260504043040 37 355 0.0 0.0 0.00 0.00 0.00 77 1009.5
20260504041536 38 355 0.0 0.0 0.00 0.00 0.00 74 1009.4
20260504040033 38 355 0.0 0.0 0.00 0.00 0.00 74 1009.2
20260504034539 39 355 0.0 0.0 0.00 0.00 0.00 74 1009.2
20260504033031 39 355 0.0 0.0 0.00 0.00 0.00 73 1009.2
20260504031530 39 355 0.0 0.0 0.00 0.00 0.00 74 1009.1
20260504030037 40 355 0.0 0.0 0.00 0.00 0.00 72 1009.1
20260504024527 40 355 0.0 0.0 0.00 0.00 0.00 71 1009.0
20260504023025 40 355 0.0 0.0 0.00 0.00 0.00 70 1009.0
20260504021527 40 355 0.0 0.0 0.00 0.00 0.00 69 1008.8
20260504020020 41 355 0.0 0.0 0.00 0.00 0.00 65 1008.7
20260504014517 43 355 0.0 0.0 0.00 0.00 0.00 60 1008.7
20260504013014 44 355 0.0 0.0 0.00 0.00 0.00 59 1008.6
20260504011511 45 355 0.0 0.0 0.00 0.00 0.00 57 1008.5
20260504010009 46 355 0.0 0.0 0.00 0.00 0.00 53 1008.3
20260504004519 47 355 0.0 0.0 0.00 0.00 0.00 50 1008.1
20260504003009 49 5 0.0 6.0 0.00 0.00 0.00 47 1007.8
20260504001508 50 342 0.0 5.0 0.00 0.00 0.00 44 1007.7
20260504000008 50 318 0.0 6.0 0.00 0.00 0.00 44 1007.5
20260503234512 51 327 0.0 12.0 0.00 0.00 0.00 44 1007.2
20260503233005 51 295 1.0 9.0 0.00 0.00 0.00 41 1007.0
20260503231506 52 340 4.0 11.0 0.00 0.00 0.00 41 1006.8
20260503230005 52 275 1.0 7.0 0.00 0.00 0.00 42 1006.7
20260503224503 52 336 1.0 10.0 0.00 0.00 0.00 43 1006.4
20260503223003 52 334 1.0 11.0 0.00 0.00 0.00 42 1006.2
20260503221503 53 331 2.0 12.0 0.00 0.00 0.00 41 1005.9
20260503220009 53 324 2.0 16.0 0.00 0.00 0.00 41 1005.7
20260503214502 53 332 1.0 12.0 0.00 0.00 0.00 40 1005.4
20260503213003 54 338 3.0 16.0 0.00 0.00 0.00 41 1005.2
20260503211600 54 319 1.0 10.0 0.00 0.00 0.00 43 1004.9
20260503210105 54 57 3.0 12.0 0.00 0.00 0.00 42 1004.7
20260503204559 53 300 3.0 13.0 0.00 0.00 0.00 43 1004.7
20260503203103 53 317 1.0 11.0 0.00 0.00 0.00 49 1004.5
20260503201557 53 337 3.0 12.0 0.00 0.00 0.00 46 1004.4
20260503200058 53 271 4.0 11.0 0.00 0.00 0.00 47 1004.3
20260503194555 55 279 2.0 9.0 0.00 0.00 0.00 46 1004.4
20260503193057 55 12 1.0 12.0 0.00 0.00 0.00 51 1004.4
20260503191549 54 24 1.0 8.0 0.00 0.00 0.00 51 1004.5
20260503190048 52 271 3.0 8.0 0.00 0.00 0.00 54 1004.6
20260503184558 52 326 3.0 10.0 0.00 0.00 0.00 55 1004.7
20260503183057 53 331 2.0 15.0 0.00 0.00 0.00 52 1004.6
20260503181549 53 355 2.0 12.0 0.00 0.00 0.00 52 1004.6
20260503180045 53 331 4.0 11.0 0.00 0.00 0.00 53 1004.5
20260503174543 50 308 3.0 14.0 0.00 0.00 0.00 58 1004.6
20260503173047 50 223 2.0 9.0 0.00 0.00 0.00 60 1004.7
20260503171539 50 223 3.0 9.0 0.00 0.00 0.00 60 1004.7
20260503081545 47 325 0.0 6.0 0.00 0.00 0.00 78 1006.1
20260503071528 48 311 0.0 4.0 0.00 0.00 0.00 77 1006.9